Date,TemperatureHighF,TemperatureAvgF,TemperatureLowF,DewpointHighF,DewpointAvgF,DewpointLowF,HumidityHigh,HumidityAvg,HumidityLow,PressureMaxIn,PressureMinIn,WindSpeedMaxMPH,WindSpeedAvgMPH,GustSpeedMaxMPH,PrecipitationSumIn
2013-1-1,55,51,47,52,46,39,97,84,72,29.86,29.67,13,2,13,0.06
2013-1-2,52,46,40,51,45,39,98,95,86,29.93,29.64,5,1,5,0.19
2013-1-3,50,40,30,40,36,29,98,87,53,30.02,29.88,8,1,8,0.00
2013-1-4,66,42,27,42,29,23,99,65,23,30.06,29.92,11,2,11,0.00
2013-1-5,66,42,27,36,27,20,89,62,20,30.14,30.01,7,1,7,0.00
2013-1-6,49,43,36,44,39,32,97,84,68,30.02,29.80,8,1,8,0.01
2013-1-7,68,42,29,46,33,28,99,75,29,30.19,29.92,10,1,10,0.00
2013-1-8,70,44,29,44,37,28,97,79,37,30.21,30.10,5,0,5,0.00
2013-1-9,39,38,37,38,37,36,97,96,95,30.13,30.10,3,0,3,0.00
2013-1-10,78,54,45,54,44,36,97,70,38,30.27,30.13,11,1,11,0.00
2013-1-11,59,51,47,55,45,31,98,82,51,30.19,29.88,7,1,7,0.11
2013-1-12,89,60,50,69,56,49,99,89,47,29.93,29.83,4,0,4,0.01
2013-1-13,84,64,53,65,58,52,99,82,47,29.89,29.78,10,2,10,0.00
2013-1-14,84,67,55,64,60,53,99,79,49,29.90,29.81,16,3,16,0.00
2013-1-15,65,52,48,60,49,45,98,91,85,29.95,29.80,8,2,8,0.00
2013-1-16,56,52,49,54,51,48,99,97,91,29.81,29.70,6,1,6,0.05
2013-1-17,54,49,37,53,49,36,99,97,93,29.83,29.59,15,2,15,0.65
2013-1-18,68,43,28,44,32,23,99,73,21,30.28,29.83,8,1,8,0.01
2013-1-19,65,42,25,38,30,24,98,71,22,30.26,29.89,9,1,9,0.00
2013-1-20,74,51,36,40,36,30,88,62,21,29.90,29.70,14,2,14,0.00
2013-1-21,72,48,29,47,31,22,96,61,18,29.81,29.59,12,2,12,0.00
2013-1-22,60,40,24,26,10,-10,66,36,10,30.03,29.68,14,2,14,0.00
2013-1-23,54,33,19,21,11,-7,78,47,10,30.14,29.81,10,2,10,0.00
2013-1-24,51,35,23,28,18,7,86,53,19,30.26,29.70,11,2,11,0.00
2013-1-25,32,25,19,26,17,4,92,72,33,30.28,29.85,5,0,5,0.00
2013-1-26,47,31,24,40,28,22,95,89,68,30.13,29.84,4,1,4,0.27
2013-1-27,52,29,25,36,27,24,97,91,44,30.34,30.13,4,0,4,0.04
2013-1-28,57,45,30,48,39,28,94,80,57,30.26,29.97,8,2,8,0.04
2013-1-29,83,61,47,59,52,44,92,74,40,29.97,29.82,14,4,14,0.00
2013-1-30,74,68,62,65,62,58,94,81,68,29.82,29.16,34,11,34,0.00
2013-1-31,72,52,35,65,32,13,91,52,16,29.77,29.13,33,7,33,0.27
2013-2-1,60,41,23,30,15,-5,66,41,10,30.13,29.66,17,3,17,0.00
2013-2-2,53,35,18,37,15,1,83,50,14,30.16,29.77,14,2,14,0.02
2013-2-3,62,44,31,43,32,25,90,66,29,29.78,29.59,14,2,14,0.00
2013-2-4,59,40,25,32,25,19,92,62,22,29.89,29.72,9,1,9,0.00
2013-2-5,70,50,36,39,34,29,87,59,25,29.76,29.60,14,2,14,0.00
2013-2-6,86,52,30,50,30,14,97,57,10,30.02,29.70,9,1,9,0.00
2013-2-7,56,45,35,46,40,33,97,83,60,30.05,29.65,13,3,13,0.27
2013-2-8,65,49,42,48,43,29,99,80,52,29.78,29.45,15,4,15,0.50
2013-2-9,75,46,28,36,24,9,86,53,10,30.09,29.77,6,1,6,0.00
2013-2-10,63,42,24,42,26,14,94,61,17,30.23,29.95,11,2,11,0.00
2013-2-11,65,58,47,61,56,42,99,92,81,29.96,29.65,15,4,15,0.18
2013-2-12,78,60,48,56,40,14,96,58,10,29.81,29.64,9,2,10,0.00
2013-2-13,50,47,46,46,44,43,96,91,80,29.70,29.58,5,1,5,0.08
2013-2-14,59,44,32,43,35,31,96,74,40,29.81,29.54,4,1,4,0.00
2013-2-15,78,47,29,43,34,28,99,69,17,29.83,29.66,5,1,5,0.00
2013-2-16,49,39,33,38,35,32,97,85,62,29.68,29.53,4,1,4,0.21
2013-2-17,50,34,23,36,21,12,97,67,25,30.01,29.64,7,1,7,0.28
2013-2-18,58,38,19,30,19,11,94,57,16,30.16,30.01,8,2,8,0.00
2013-2-19,57,45,30,52,40,26,93,83,64,30.02,29.59,14,4,14,0.08
2013-2-20,68,50,30,41,19,5,91,39,10,29.86,29.70,17,2,17,0.00
2013-2-21,73,46,25,35,20,5,87,44,10,29.99,29.83,11,1,11,0.00
2013-2-22,43,38,33,38,33,22,97,84,44,30.09,29.87,8,2,8,0.50
2013-2-23,48,43,38,46,42,38,98,97,92,29.87,29.53,4,1,4,0.44
2013-2-24,81,55,38,56,42,34,99,70,23,29.77,29.51,10,1,10,0.06
2013-2-25,50,40,34,34,26,21,91,59,34,29.96,29.77,11,2,11,0.00
2013-2-26,61,44,38,60,41,30,99,88,72,29.86,29.27,12,3,12,0.61
2013-2-27,74,53,41,50,42,38,96,69,32,29.54,29.36,19,4,19,0.00
2013-2-28,57,45,36,41,33,26,95,66,35,29.57,29.43,13,2,13,0.00
2013-3-1,72,45,32,37,29,21,82,57,17,29.63,29.56,11,2,11,0.00
2013-3-2,62,43,28,34,28,23,92,58,24,29.64,29.52,8,1,8,0.00
2013-3-3,55,40,27,36,31,25,95,72,40,29.96,29.76,4,1,4,0.00
2013-3-4,60,45,39,48,39,31,98,79,61,29.72,29.40,6,2,6,0.33
2013-3-5,64,43,29,32,25,20,85,57,19,30.17,29.72,4,2,4,0.00
2013-3-6,60,41,24,39,28,22,96,66,28,30.17,29.88,11,2,11,0.00
2013-3-7,71,55,38,45,31,26,85,44,20,29.97,29.81,6,3,6,0.00
2013-3-8,72,49,30,32,24,15,80,45,13,30.02,29.87,9,2,9,0.00
2013-3-9,82,52,33,36,27,15,84,48,10,30.08,29.97,8,1,8,0.00
2013-3-10,79,52,30,44,26,9,96,52,10,30.07,29.95,9,2,9,0.00
2013-3-11,75,55,36,54,44,30,87,69,39,30.00,29.69,23,5,23,0.00
2013-3-12,79,64,51,66,57,37,99,80,54,29.71,29.48,17,5,17,0.57
2013-3-13,50,43,35,38,34,30,86,71,59,29.82,29.67,3,1,3,0.00
2013-3-14,70,52,29,25,18,9,68,31,10,30.01,29.84,15,3,15,0.00
2013-3-15,72,49,27,37,27,14,89,49,13,29.94,29.67,16,3,16,0.00
2013-3-16,87,66,49,47,42,37,69,46,23,29.67,29.41,28,5,28,0.00
2013-3-17,73,56,45,54,45,38,91,68,41,29.92,29.57,12,3,12,0.00
2013-3-18,53,45,40,46,41,39,96,87,76,29.93,29.69,8,3,8,0.00
2013-3-19,82,57,44,52,35,14,98,55,10,29.74,29.55,10,2,10,0.01
2013-3-20,70,53,34,30,14,2,76,28,10,29.89,29.54,11,2,11,0.00
2013-3-21,66,44,32,30,19,2,84,44,10,29.71,29.45,16,2,16,0.00
2013-3-22,63,40,23,22,13,2,76,37,10,29.86,29.71,11,2,11,0.00
2013-3-23,64,50,35,34,26,18,80,43,21,29.80,29.66,6,1,6,0.00
2013-3-24,44,40,34,42,37,30,97,89,70,29.69,29.28,11,2,11,0.47
2013-3-25,56,43,37,42,33,21,97,71,31,29.56,29.28,27,4,27,0.02
2013-3-26,63,44,37,29,26,24,65,52,25,29.82,29.56,11,3,11,0.00
2013-3-27,70,52,32,31,22,15,81,36,13,29.97,29.86,17,3,17,0.00
2013-3-28,72,48,32,30,24,14,76,46,12,30.04,29.88,12,2,12,0.00
2013-3-29,78,49,28,36,26,14,91,50,10,30.10,29.93,14,1,14,0.00
2013-3-30,80,55,38,44,38,24,89,57,17,29.99,29.83,9,2,9,0.00
2013-3-31,74,56,46,59,49,40,98,79,55,29.86,29.57,14,3,14,0.21
2013-4-1,59,58,56,59,57,55,99,98,95,29.64,29.58,6,1,6,0.44
2013-4-2,79,55,38,42,30,20,80,44,13,29.93,29.71,9,2,9,0.00
2013-4-3,76,56,44,40,24,10,83,36,10,30.06,29.88,7,2,7,0.00
2013-4-4,53,44,40,43,36,31,99,76,46,30.11,29.64,8,3,8,0.69
2013-4-5,74,52,41,49,44,41,99,80,34,29.78,29.60,4,1,4,0.01
2013-4-6,78,54,37,41,35,24,98,59,15,30.05,29.78,11,2,11,0.00
2013-4-7,80,59,36,51,44,32,93,62,25,30.07,29.86,9,3,9,0.00
2013-4-8,87,68,50,61,54,48,96,64,30,29.95,29.80,17,4,17,0.00
2013-4-9,95,73,54,64,58,53,98,64,29,29.95,29.81,15,4,15,0.00
2013-4-10,94,78,60,64,60,57,94,56,34,29.87,29.70,14,5,14,0.00
2013-4-11,91,74,61,67,61,55,98,68,31,29.78,29.56,17,5,17,0.00
2013-4-12,88,74,67,71,67,64,98,82,51,29.60,29.37,20,7,20,0.44
2013-4-13,87,68,52,67,46,34,94,53,17,29.76,29.49,11,2,11,0.00
2013-4-14,92,67,45,63,46,28,98,58,11,29.86,29.76,10,2,10,0.00
2013-4-15,82,68,61,59,58,53,93,70,43,29.95,29.75,10,2,10,0.01
2013-4-16,89,68,54,65,59,53,98,76,37,30.06,29.94,7,1,7,0.00
2013-4-17,95,71,53,66,60,52,98,72,35,30.00,29.84,10,2,10,0.00
2013-4-18,87,70,56,66,60,55,97,74,47,29.95,29.80,14,4,14,0.00
2013-4-19,88,74,66,70,68,64,99,81,55,29.81,29.51,26,8,26,0.64
2013-4-20,74,58,44,66,45,30,99,67,25,30.03,29.58,14,1,14,0.20
2013-4-21,78,55,39,48,42,37,99,68,25,30.25,30.02,13,2,13,0.00
2013-4-22,78,54,37,49,42,34,97,69,32,30.25,29.99,8,2,8,0.05
2013-4-23,85,59,48,55,50,48,98,77,31,30.02,29.87,7,1,7,0.02
2013-4-24,84,60,48,60,52,47,99,81,34,29.93,29.74,11,2,11,0.00
2013-4-25,86,67,53,59,53,44,94,65,28,30.03,29.77,8,2,8,0.00
2013-4-26,91,58,46,58,48,31,99,76,12,30.17,30.03,10,1,10,0.00
2013-4-27,90,60,51,54,47,39,87,68,19,30.16,30.00,6,1,6,0.00
2013-4-28,74,62,54,59,52,44,96,69,45,30.04,29.84,6,1,6,0.04
2013-4-29,79,66,58,66,62,57,99,87,54,29.85,29.70,9,1,9,0.89
2013-4-30,81,66,57,66,62,56,99,87,56,29.90,29.74,6,1,6,0.00
2013-5-1,58,57,57,57,57,56,99,98,97,29.91,29.89,2,0,2,0.00
2013-5-2,66,60,55,58,56,52,99,88,74,29.91,29.69,66,6,66,18.35
2013-5-3,74,58,50,55,48,42,97,69,44,29.71,29.60,19,7,19,0.00
2013-5-4,53,50,50,48,46,44,92,86,73,29.64,29.58,14,7,14,0.00
2013-5-5,62,57,50,56,53,47,91,86,79,29.51,29.40,17,8,17,0.00
2013-5-6,68,59,56,64,58,56,99,97,87,29.41,29.31,15,6,15,0.15
2013-5-13,76,59,44,43,36,29,82,50,18,29.58,29.43,7,2,7,0.00
2013-5-14,80,60,38,45,38,31,96,53,19,29.65,29.47,8,2,8,0.00
2013-5-15,96,73,52,63,55,44,77,56,29,29.47,29.27,13,4,13,0.05
2013-5-16,96,78,60,66,61,57,98,62,29,29.36,29.28,9,2,9,0.00
2013-5-17,97,76,61,68,63,59,98,68,31,29.66,29.34,48,2,48,5.04
2013-5-18,84,69,60,68,64,60,99,86,59,29.47,29.39,3,0,3,0.80
2013-5-19,79,70,63,72,68,63,99,93,73,29.46,29.35,8,1,8,0.18
2013-5-20,75,69,67,75,69,66,99,98,86,29.42,29.32,6,1,6,2.15
2013-5-21,84,74,68,74,70,67,99,87,70,29.35,29.24,6,1,6,0.01
2013-5-22,86,74,68,72,69,67,99,86,60,29.33,29.20,8,1,8,0.01
2013-5-23,87,72,66,72,68,65,99,87,57,29.26,29.11,6,1,6,0.21
2013-5-24,74,64,53,65,53,39,99,71,39,29.49,29.12,14,4,14,0.04
2013-5-25,74,58,42,58,43,32,96,63,25,29.58,29.42,8,2,8,0.00
2013-5-26,75,60,46,56,47,39,92,66,33,29.57,29.46,8,1,8,0.00
2013-5-27,88,66,49,62,54,48,99,71,36,29.58,29.44,5,1,5,0.00
2013-5-28,90,73,60,68,63,56,98,73,45,29.55,29.44,11,1,11,0.00
2013-5-29,91,74,60,68,64,59,99,73,41,29.55,29.45,7,1,7,0.00
2013-5-30,89,74,60,70,65,60,99,77,49,29.58,29.47,5,0,5,0.00
2013-5-31,92,83,65,72,67,65,99,61,45,29.53,29.40,4,0,4,0.00
2013-6-1,93,77,66,70,67,64,99,74,45,29.44,29.33,4,1,4,0.00
2013-6-2,88,76,68,73,69,65,99,81,54,29.35,29.21,5,1,5,0.07
2013-6-3,80,72,68,73,70,68,99,96,74,29.26,29.17,7,2,7,0.37
2013-6-4,77,72,64,68,65,63,99,81,67,29.39,29.24,4,1,4,0.00
2013-6-5,86,71,62,68,64,58,99,80,48,29.43,29.31,6,1,6,0.00
2013-6-6,73,70,64,73,68,59,99,93,68,29.33,29.11,11,2,11,0.30
2013-6-7,71,69,59,71,69,58,99,99,99,29.15,28.84,8,1,8,2.40
2013-6-8,82,72,64,76,68,64,99,89,61,29.40,29.12,7,1,7,0.06
2013-6-9,96,77,65,77,70,64,99,81,45,29.46,29.35,8,1,8,0.00
2013-6-10,82,74,70,77,73,70,99,97,81,29.39,29.19,8,2,8,0.32
2013-6-11,87,76,67,72,68,64,99,80,54,29.26,29.20,10,3,10,0.00
2013-6-12,89,70,62,77,68,62,99,92,54,29.28,29.16,5,0,5,0.00
2013-6-13,102,81,67,79,73,66,99,80,44,29.17,28.91,25,2,25,0.00
2013-6-14,88,71,58,67,61,57,99,74,40,29.80,29.04,8,2,8,0.00
2013-6-15,90,75,56,66,62,56,99,67,39,29.42,29.31,6,2,6,0.00
2013-6-16,89,74,60,69,65,60,99,78,50,30.16,30.06,4,0,4,0.00
2013-6-17,89,78,65,74,72,65,99,83,54,30.11,29.82,4,1,4,3.56
2013-6-18,83,73,69,74,71,68,99,94,74,29.87,29.65,8,1,8,0.00
2013-6-19,69,67,66,69,67,66,99,99,99,29.80,29.77,0,0,0,0.00